Location: Kolberg
(44.7192°N, 87.5490°W)
Time: 05:12:35
(UTC+00:00)

Daily predictions for brighter satellites

Satellite Brightness Start Highest point End
(mag) Time Altitude Azimuth Time Altitude Azimuth Time Altitude Azimuth
CZ-4 R/B 4.3 00:00:06 10° SSE 00:04:03 84° WSW 00:08:01 10° NNW
Gbstr 26 Del rocket 4.5 00:03:24 10° S 00:05:34 19° SSE 00:05:34 19° SSE
Cosmos 1743 2.8 00:04:25 10° NNW 00:07:38 57° W 00:10:49 10° S
Cosmos 1354 Rocket 4.2 00:04:47 10° S 00:09:48 46° ESE 00:10:25 44° E
Spot 4 Rocket 3.9 00:06:41 10° SSE 00:11:46 77° ENE 00:16:54 10° NNW
Cosmos 1697 Rocket 2.9 00:07:35 10° S 00:12:51 44° ESE 00:13:24 43° E
BREEZE-M DEB (TANK) 4.3 00:07:01 10° SSW 00:14:47 30° SE 00:15:42 29° SE
SL-19 R/B 4.0 00:11:04 10° SSE 00:16:17 72° ENE 00:21:46 10° NNW
Cosmos 1867 4.1 00:11:48 10° NNW 00:16:38 39° NE 00:16:38 39° NE
Okean 1-7 Rocket 3.5 00:14:51 10° N 00:19:18 87° W 00:23:39 10° S
BREEZE-M DEB (TANK) 3.4 00:17:39 10° WNW 00:21:12 63° NNE 00:23:52 39° E
Cosmos 1655 Rocket 3.9 00:16:12 10° N 00:22:24 62° E 00:28:32 10° SSE
Cosmos 1606 Rocket 3.4 00:18:17 10° S 00:22:39 84° E 00:23:21 62° NNE
Cosmos 724 4.2 00:20:15 10° NNW 00:26:21 77° NE 00:28:38 39° SE
Resurs 1-3 3.5 00:22:13 10° S 00:26:31 82° W 00:30:50 10° NNW
NOSS 2-2 (D) 4.4 00:25:06 10° WSW 00:27:57 29° NW 00:27:57 29° NW
Meteor 1-25 Rocket 4.2 00:22:31 10° NNW 00:28:23 86° W 00:34:10 10° S
NOSS 2-2 (E) 4.2 00:26:38 10° WSW 00:29:25 34° WNW 00:29:25 34° WNW
Cosmos 1777 Rocket 4.2 00:25:38 10° SSW 00:30:52 71° WNW 00:33:11 34° N
NOSS 3-2 (C) 2.9 00:29:06 10° SW 00:34:03 88° SE 00:34:58 63° NE
ATLAS CENTAUR R/B 3.3 00:31:50 10° NW 00:32:35 16° NW 00:32:35 16° NW
NOSS 3-2 (A) 4.2 00:33:34 10° WSW 00:38:22 40° NW 00:40:47 27° N
BREEZE-M DEB (TANK) 4.2 00:39:25 10° WNW 00:43:27 65° NNE 00:45:11 51° ENE
Cosmos 2297 Rocket 2.7 00:40:40 10° NNW 00:46:13 58° WSW 00:51:45 10° S
Cosmos 1726 Rocket 4.1 00:46:34 10° SSW 00:50:30 59° SW 00:50:30 59° SW
NOAA 6 4.2 00:48:08 10° S 00:53:13 67° WSW 00:58:19 10° NNW
Meteor 1-5 Rocket 4.1 00:48:00 10° NNW 00:53:19 80° W 00:53:42 75° SSW
CZ-4C R/B 2.9 00:49:27 10° NW 00:56:36 85° NE 00:59:10 50° SE
Meteor 2-20 4.5 00:55:20 10° SSW 01:01:29 79° W 01:03:10 51° N
BlueWalker 3 4.5 01:01:29 10° WNW 01:02:32 18° WNW 01:02:32 18° WNW
YAOGAN 1 4.4 01:03:32 10° SSW 01:07:13 28° W 01:10:56 10° NW
Cosmos 1980 Rocket 4.1 01:07:34 10° S 01:09:03 19° S 01:09:03 19° S
BREEZE-M DEB (TANK) 4.1 01:13:47 10° WNW 01:32:06 76° NNW 01:32:06 76° NNW
Cosmos 2263 Rocket 4.1 01:27:08 10° NNW 01:28:51 21° NNW 01:28:51 21° NNW
Cosmos 2227 Rocket 3.6 01:31:19 10° NW 01:34:33 33° NW 01:34:33 33° NW
USA 215 3.8 01:39:48 50° NW 01:39:48 50° NW 01:44:29 10° NW
Cosmos 1980 Rocket 3.2 10:04:01 39° NE 10:04:43 41° ENE 10:09:57 10° SE
Cosmos 909 Rocket 4.4 10:12:15 64° NNW 10:12:15 64° NNW 10:18:25 10° NNE
Tiangong 1.4 10:16:27 12° ESE 10:16:27 12° ESE 10:16:45 10° E
USA 59 Rocket 2.0 10:24:05 20° NE 10:24:05 20° NE 10:27:01 10° E
Cosmos 540 Rocket 3.7 10:25:57 64° NE 10:25:57 64° NE 10:30:24 10° NNE
COSMO-SKYMED 1 4.4 10:27:33 10° SE 10:31:01 27° ENE 10:33:21 16° NNE
Cosmos 1354 Rocket 4.1 10:36:49 64° S 10:36:49 64° S 10:41:14 10° SSE
COSMOS 2455 3.8 10:38:05 25° N 10:41:15 44° NE 10:46:59 10° ESE
USA 234 4.3 10:38:58 10° ENE 10:44:31 30° N 10:46:14 27° NNW
Cosmos 1697 Rocket 3.4 10:49:33 37° SW 10:49:33 37° SW 10:53:26 10° S
IRS-1D 3.7 10:44:16 10° NNE 10:49:14 67° ESE 10:54:16 10° S
SJ-11-01 4.1 10:48:12 10° NNE 10:52:56 83° WNW 10:57:35 10° SSW
USA 238 DEB 4.4 10:54:15 39° WSW 10:54:58 40° WSW 11:02:20 10° S
USA 238 4.4 10:54:18 40° WSW 10:55:04 41° WSW 11:02:29 10° S
Cosmos 1933 4.1 10:54:54 26° NNE 10:56:40 47° ENE 11:00:21 10° SSE
Cosmos 1898 Rocket 4.3 10:53:34 17° N 10:57:22 49° ENE 11:02:27 10° SE
Meteor 2-12 Rocket 4.4 10:53:59 10° SSW 11:00:00 58° WNW 11:06:01 10° N
Nadezhda 4 Rocket 4.2 10:55:53 10° S 11:02:09 72° E 11:08:26 10° NNE
Cosmos 468 Rocket 3.8 11:03:41 10° SSW 11:08:56 75° WNW 11:14:11 10° NNE
Aureole 1 Rocket 4.3 11:04:19 14° NNW 11:10:22 88° ENE 11:17:53 10° SSE
CZ-4 R/B 3.6 11:10:28 10° NNE 11:15:09 80° WNW 11:19:45 10° SSW
NOSS 3-1 (C) 4.4 11:09:54 18° NNW 11:15:19 61° NE 11:23:59 10° SE
CZ-3 R/B 4.2 11:08:46 18° WSW 11:16:50 25° SW 11:23:47 10° S
Cosmos 1833 Rocket 4.0 11:21:51 21° NNW 11:21:51 21° NNW 11:25:05 10° N
FengYun 1-2 T 4.4 11:15:29 10° N 11:20:55 49° WNW 11:26:19 10° SW
SL-16 R/B 3.5 11:16:34 10° NNW 11:21:51 38° NE 11:27:06 10° ESE
Cosmos 1536 Rocket 3.6 11:18:09 10° SSW 11:22:29 51° WNW 11:26:49 10° N
Cosmos 2082 Rocket 2.1 11:17:04 10° SSW 11:22:42 79° WNW 11:28:21 10° NNE
BREEZE-M DEB (TANK) 2.0 11:23:10 54° WNW 11:23:44 72° N 11:29:07 10° E
Helios 1A Rocket 2.2 11:21:35 10° SSE 11:24:54 82° WSW 11:26:07 37° NNW
Cosmos 1763 Rocket 4.2 11:25:10 31° NW 11:25:10 31° NW 11:29:39 10° N
SL-4 R/B 2.9 11:26:48 24° N 11:26:48 24° N 11:29:19 10° NE
Cosmos 1937 Rocket 3.8 11:21:44 11° NNW 11:26:38 64° ENE 11:31:42 10° SSE
IGS 5A 4.3 11:28:44 10° NNE 11:32:38 49° E 11:36:30 10° S
SKYMED 2 3.9 11:29:27 10° S 11:33:36 44° W 11:35:45 25° NW
Cosmos 2098 Rocket 4.2 11:32:06 18° NW 11:35:36 36° W 11:40:50 10° SSW
NOSS 3-4 (A) 4.5 11:34:51 21° NW 11:35:53 22° NNW 11:40:30 10° NNE
NOSS 3-4 (C) 4.4 11:34:59 21° NW 11:36:02 22° NNW 11:40:40 10° NNE
BREEZE-M DEB (TANK) 4.2 11:33:08 23° W 11:36:56 44° SW 11:40:22 10° SE
Cosmos 2058 Rocket 4.1 11:35:18 10° N 11:39:38 48° ENE 11:43:54 10° SSE
SL-8 R/B 4.4 11:39:28 25° W 11:41:33 38° SW 11:45:55 10° SSE
Cosmos 372 Rocket 4.0 11:37:56 17° NNW 11:41:43 57° WSW 11:46:39 10° S
Cosmos 2369 3.8 11:42:08 15° NW 11:46:51 60° WSW 11:52:24 10° S
Cosmos 1980 Rocket 2.9 11:45:48 21° WNW 11:48:32 32° WSW 11:53:26 10° SSW
SL-24 R/B - RUBIN 2 4.3 11:47:28 24° WNW 11:49:13 33° WSW 11:53:09 10° S
Tiangong -1.2 11:48:48 22° WSW 11:50:24 40° S 11:53:28 10° ESE
Meteor 2-20 4.4 11:45:41 10° N 11:51:51 88° W 11:57:56 10° S
RESURS DK-1 4.5 11:58:58 11° NNW 11:58:58 11° NNW 11:59:14 10° NNW
